This is the latest recevied weather packets stored in our database for station/object OE3PDB-3. If no packets are shown the sender has not sent any weather packets the latest 10 day(s).
| Time | Temp. | Humidity | Pressure | Rain* | Wind** | Luminosity | Snow |
|---|---|---|---|---|---|---|---|
| 1788071423 | 18.33° C | 69% | 1017.2 hPa | 0 mm | - | - | - |
| 1788070823 | 18.33° C | 69% | 1017.1 hPa | 0 mm | - | - | - |
| 1788070223 | 17.78° C | 69% | 1017 hPa | 0 mm | - | - | - |
| 1788069623 | 17.78° C | 70% | 1017 hPa | 0 mm | - | - | - |
| 1788069023 | 17.78° C | 72% | 1017 hPa | 0 mm | - | - | - |
| 1788068423 | 16.11° C | 73% | 1016.9 hPa | 0 mm | - | - | - |
| 1788067823 | 16.11° C | 73% | 1017 hPa | 0 mm | - | - | - |
| 1788067223 | 15.56° C | 75% | 1016.8 hPa | 0 mm | - | - | - |
| 1788066623 | 15.56° C | 76% | 1016.7 hPa | 0 mm | - | - | - |
| 1788066023 | 15° C | 75% | 1016.7 hPa | 0 mm | - | - | - |
| 1788065423 | 15° C | 75% | 1016.7 hPa | 0 mm | - | - | - |
| 1788064823 | 15° C | 75% | 1016.7 hPa | 0 mm | - | - | - |
| 1788064223 | 15° C | 75% | 1016.7 hPa | 0 mm | - | - | - |
| 1788063623 | 15° C | 74% | 1016.8 hPa | 0 mm | - | - | - |
| 1788063023 | 15° C | 74% | 1016.8 hPa | 0 mm | - | - | - |
| 1788062423 | 15° C | 74% | 1016.8 hPa | 0 mm | - | - | - |
| 1788061823 | 15° C | 73% | 1016.8 hPa | 0 mm | - | - | - |
| 1788061223 | 15° C | 73% | 1016.7 hPa | 0 mm | - | - | - |
| 1788060623 | 15° C | 73% | 1016.5 hPa | 0 mm | - | - | - |
| 1788060023 | 15.56° C | 73% | 1016.5 hPa | 0 mm | - | - | - |
| 1788059423 | 15.56° C | 73% | 1016.6 hPa | 0 mm | - | - | - |
| 1788058823 | 15.56° C | 73% | 1016.6 hPa | 0 mm | - | - | - |
| 1788058223 | 15.56° C | 73% | 1016.5 hPa | 0 mm | - | - | - |
| 1788057623 | 15.56° C | 72% | 1016.4 hPa | 0 mm | - | - | - |
| 1788057023 | 15.56° C | 72% | 1016.3 hPa | 0 mm | - | - | - |
* Rain latest hour (hover to see other rain measurements)
** Current wind speed in m/s (hover to see current wind gust speed)